RH
37 28 22 22 21 15 16 16 24 20 16 12 10 12 12 12 16 22 27 29 29 29 29 29 30 32 33 35 36 35 36 37 44 47 50 53 55 56 57 54 54 55 58 57
52 38 35 36 27 20 15 14 14 15 17 12 10 8 11 14 20 23 27 30 28 28 28 29 30 31 33 34 36 35 36 36 43 47 49 54 56 58 60 59 57 56 56 57
66 42 38 50 31 24 18 14 14 19 15 12 13 12 17 20 24 25 28 31 29 28 29 30 31 32 34 36 36 36 36 38 44 46 49 54 56 58 58 58 59 58 58 58
55 48 89 42 23 18 18 16 14 13 13 12 12 12 16 19 25 27 29 30 28 28 30 31 32 32 36 38 38 38 38 40 43 45 49 53 52 54 58 60 57 56 59 59
67 48 42 31 23 20 18 18 14 15 13 11 11 12 17 16 22 27 30 32 30 29 31 32 33 34 37 38 39 39 39 39 41 44 48 49 49 54 54 55 55 55 55 58
52 58 61 31 22 17 22 32 29 31 24 12 12 21 15 14 19 25 28 31 33 31 32 33 34 35 39 39 40 39 39 39 40 44 44 46 48 52 51 51 51 46 54 60
54 63 38 20 16 17 49 53 39 38 35 34 22 14 13 16 18 29 32 34 34 33 33 34 35 38 40 40 40 39 40 39 40 42 43 45 49 51 50 46 45 47 51 61
47 55 57 17 21 32 60 40 34 39 36 40 35 28 25 16 18 28 33 34 34 34 34 35 36 38 40 41 42 41 41 39 42 42 42 47 50 49 47 47 52 52 53 58
89 71 26 42 54 40 36 36 32 31 32 36 38 35 29 24 19 25 29 31 34 34 35 36 38 40 42 44 42 44 42 40 42 42 41 47 48 48 46 50 52 52 51 54
39 32 31 34 46 31 30 34 28 24 24 30 38 33 31 28 22 26 25 28 33 35 36 37 40 40 42 42 43 44 41 40 42 43 42 46 47 46 46 49 48 44 45 48
31 27 25 24 23 30 66 29 22 24 23 24 30 29 29 28 28 25 25 26 33 34 35 38 40 39 40 42 43 43 40 41 43 43 44 44 42 44 45 53 50 48 50 51
38 25 25 24 20 19 21 20 21 22 24 21 25 24 28 27 26 26 28 28 32 34 36 39 40 38 39 42 44 41 40 42 44 47 44 42 58 65 54 58 59 56 60 50
28 22 23 23 20 18 20 19 18 20 21 22 24 21 23 27 26 31 28 31 34 35 36 39 40 36 39 44 43 41 40 44 46 48 44 46 54 63 77 66 60 53 56 54
22 22 28 22 23 19 18 17 19 18 20 21 21 20 24 28 27 32 29 32 36 35 35 39 38 36 42 46 43 41 42 44 46 47 46 52 53 58 64 68 58 54 17 20
26 22 24 21 20 19 18 19 21 20 17 17 21 22 26 28 29 35 30 33 36 35 36 39 38 40 46 46 42 42 42 43 46 49 51 50 52 57 60 56 49 47 56 39
26 25 25 26 25 22 20 20 22 22 20 20 22 22 28 26 28 38 33 34 38 38 37 40 39 43 49 45 42 44 43 43 48 52 55 52 56 59 60 55 53 51 43 47
31 32 34 33 30 28 25 22 19 21 26 25 20 25 26 25 32 41 34 35 37 38 39 42 42 47 51 43 44 46 49 47 52 57 57 55 57 58 54 52 51 50 50 50
31 31 32 32 33 33 31 30 29 25 27 25 23 27 32 33 44 48 38 37 39 40 42 43 45 52 52 47 48 52 52 55 59 63 59 60 58 54 52 52 52 53 62 57
48 49 35 31 32 32 31 29 26 26 29 28 34 53 48 52 64 61 53 47 54 52 48 46 50 57 51 50 55 58 58 61 65 65 64 62 58 55 56 57 57 62 67 49
94 88 76 36 33 36 34 31 28 29 29 34 42 53 82 96 88 86 61 69 53 52 50 51 56 60 52 54 62 64 64 65 66 67 70 67 67 64 67 66 72 77 70 59
84 83 92 60 40 43 41 35 39 42 36 33 48 68 77 93 97 92 96 76 61 56 54 60 64 60 60 66 70 70 66 67 70 78 79 82 84 83 81 79 83 88 84 81
73 91 91 52 40 39 41 38 34 38 41 39 46 61 98 96 100 93 64 63 71 59 65 70 66 63 67 73 70 71 71 75 84 88 94 100 95 95 94 93 93 90 88 88
88 91 68 46 39 34 32 34 37 36 43 45 56 92 90 70 75 75 77 70 72 66 76 70 67 66 71 67 78 77 78 87 92 93 98 98 98 98 96 95 93 91 91 88
95 77 42 36 31 32 33 33 34 34 36 36 46 75 67 72 72 71 68 72 73 75 74 70 70 69 70 78 86 86 90 94 93 96 97 97 97 97 95 94 94 91 84 78
94 51 28 29 30 32 30 29 31 32 32 32 34 54 67 64 74 71 71 80 80 80 73 76 72 72 77 93 95 93 98 94 93 89 91 92 95 96 91 84 79 75 68 58
97 43 30 27 29 30 32 32 34 35 35 43 46 59 78 69 72 72 74 86 86 77 95 92 84 81 100 100 97 96 94 94 86 84 79 84 86 85 76 72 70 63 51 42
84 92 44 33 33 33 32 31 44 45 45 52 61 74 79 73 75 76 85 88 81 91 100 97 90 100 100 98 96 93 91 87 76 69 71 70 70 64 58 54 51 47 43 38
Wind_Speed
20 25 25 24 24 25 26 26 24 25 31 24 23 15 16 13 16 23 28 30 28 25 23 33 33 32 31 30 28 27 24 22 20 19 17 16 15 13 12 11 10 9 9 8
20 21 22 25 25 25 22 29 28 28 28 23 26 23 15 17 16 23 26 29 29 28 27 32 35 34 32 32 30 27 25 23 21 20 18 17 16 14 13 12 10 9 8 7
20 19 23 24 27 29 24 22 22 25 24 22 22 19 9 12 18 23 25 26 29 29 26 33 36 35 34 33 31 29 26 24 23 21 20 19 17 16 14 13 11 10 8 7
15 17 18 15 23 26 28 27 26 26 24 21 21 22 18 12 17 21 24 27 27 24 33 37 38 37 36 34 32 29 28 26 25 23 22 20 18 17 15 13 12 10 8 7
15 15 22 27 19 19 24 29 25 26 25 22 21 16 14 17 19 22 24 24 26 34 34 36 38 38 38 36 34 31 30 28 27 25 23 21 20 18 16 14 12 10 9 7
13 18 24 25 22 25 24 18 16 18 22 24 23 12 13 21 17 18 19 24 25 35 36 36 38 39 39 38 36 33 31 29 27 25 24 22 20 19 16 14 13 11 9 7
20 19 18 20 18 25 18 7 19 20 20 21 13 14 18 8 15 16 20 28 32 37 37 39 38 39 37 37 36 34 31 29 28 26 25 23 21 18 17 15 14 11 10 7
20 20 22 8 19 20 4 9 16 18 18 19 17 17 14 13 5 15 21 28 36 34 39 41 42 41 37 36 36 35 33 31 30 28 25 24 22 19 17 16 15 13 11 9
3 5 13 18 9 11 11 9 14 18 20 20 18 18 16 11 11 10 18 26 37 34 36 41 45 43 38 37 38 37 35 33 31 29 26 24 22 20 18 16 15 14 12 11
18 17 16 15 10 17 20 8 17 19 22 22 18 17 17 15 9 8 13 20 32 35 33 34 41 42 38 42 40 39 36 34 32 30 27 24 21 20 18 16 15 14 12 11
25 31 26 27 22 13 15 19 20 21 22 23 19 18 16 16 16 8 11 22 31 32 33 36 43 42 42 43 43 39 36 34 32 29 28 26 21 18 18 13 14 15 12 11
22 25 19 26 25 24 26 25 24 23 23 23 20 19 19 17 15 14 9 18 25 31 34 37 39 39 42 44 45 41 37 34 32 30 28 26 21 15 19 17 16 16 16 13
30 27 28 31 31 31 28 26 26 25 23 24 21 19 21 17 18 23 12 18 24 28 33 38 41 41 43 45 44 42 38 35 33 32 29 27 25 22 18 14 16 15 16 14
32 31 33 33 28 28 27 25 26 26 28 23 27 30 24 18 22 21 13 20 27 30 31 36 40 40 44 45 44 40 38 38 35 32 30 28 26 24 21 20 18 13 15 14
33 31 33 32 33 31 27 25 27 26 24 23 27 23 22 18 18 19 15 19 26 29 32 36 38 38 44 46 45 41 39 36 34 31 29 28 26 24 22 21 19 17 14 12
33 33 35 36 35 35 33 32 30 27 24 24 20 21 23 24 25 23 18 19 21 18 31 35 37 42 45 45 44 40 38 38 34 32 31 28 26 24 23 22 20 19 16 14
34 32 33 34 32 33 32 28 27 25 22 23 22 27 25 24 24 22 18 20 25 27 31 38 39 43 45 45 45 40 39 38 35 32 31 28 26 24 23 22 20 19 17 16
33 36 37 35 29 30 28 28 26 27 24 27 29 27 23 17 16 17 17 19 22 24 31 36 39 42 43 44 43 42 41 38 35 33 31 29 27 25 23 22 21 20 18 18
33 37 35 36 34 31 27 24 24 28 28 30 26 18 21 22 18 19 17 17 20 19 29 37 42 46 43 44 43 42 41 39 34 32 30 30 28 25 24 23 22 21 18 18
33 34 39 36 33 31 29 29 35 30 33 30 26 20 16 17 21 25 24 17 27 29 35 38 47 44 43 47 43 41 42 39 36 33 32 31 28 26 24 24 23 22 21 19
29 32 30 33 26 29 29 31 26 22 28 33 22 17 17 19 22 25 14 10 25 29 35 42 46 40 40 44 41 40 40 37 35 33 33 31 29 27 26 25 24 23 22 20
28 25 20 26 22 24 27 32 36 30 30 29 25 25 18 17 18 24 31 25 27 34 35 43 45 43 43 45 37 39 38 36 34 33 31 31 30 28 27 27 25 25 24 22
26 26 20 22 23 23 27 30 31 32 25 28 25 20 20 18 19 14 12 27 31 37 35 41 40 46 50 41 38 39 38 37 35 33 32 32 31 30 29 27 26 25 24 23
27 22 17 20 19 21 23 23 31 34 31 31 28 28 25 18 19 24 25 33 36 42 39 40 47 52 54 37 38 39 37 36 34 33 32 32 30 29 27 27 26 25 24 24
19 18 8 16 19 15 20 22 24 26 30 30 31 28 30 27 25 26 28 32 41 44 37 42 52 56 37 37 38 37 36 36 36 36 34 32 31 29 28 29 28 28 26 26
9 8 6 13 12 12 14 17 12 13 18 13 23 23 24 24 25 29 31 35 41 41 34 43 50 46 36 37 38 38 36 35 38 35 35 33 31 30 30 29 28 28 26 25
5 5 6 9 11 17 19 16 11 12 20 17 14 21 25 25 28 29 34 36 39 34 39 42 44 37 36 38 37 36 34 36 37 37 35 34 33 32 31 30 29 27 25 24
Wind_Direction
281 284 281 285 282 228 239 247 238 236 246 250 254 213 225 229 202 187 189 186 188 182 183 181 176 176 173 169 170 169 167 165 162 157 155 152 147 147 144 139 136 133 127 115
290 281 279 276 271 271 244 232 246 249 248 244 256 265 229 202 200 194 195 187 187 186 182 182 176 176 173 171 169 170 167 165 162 160 158 154 155 153 149 147 146 142 132 122
270 281 272 256 248 255 261 263 245 247 253 254 248 246 279 195 201 196 192 190 191 188 181 180 177 173 172 170 169 170 168 165 165 165 162 162 161 159 158 156 150 144 136 133
260 274 274 248 246 246 251 261 262 265 265 262 255 248 222 208 208 199 194 192 193 186 182 181 176 174 170 170 169 169 169 167 169 168 166 165 164 166 164 161 155 145 147 151
249 240 253 276 272 256 248 249 249 260 265 258 256 266 207 221 201 204 201 194 188 180 177 178 176 173 170 169 169 171 171 170 171 169 167 168 169 168 166 163 160 155 153 151
239 240 243 250 259 263 277 277 355 339 314 243 253 230 252 220 194 198 198 194 181 176 177 178 179 175 170 170 170 173 172 171 170 170 170 171 170 168 167 166 162 157 150 148
227 242 257 267 251 251 278 264 356 353 359 348 276 226 246 263 185 171 185 187 180 177 180 179 178 175 174 170 172 169 169 168 169 171 172 171 168 168 168 165 162 158 155 154
234 235 246 290 255 269 26 341 357 355 358 349 353 355 350 330 180 176 180 185 185 181 178 177 178 179 178 171 167 164 165 168 170 171 171 170 167 167 168 164 164 166 164 160
209 283 254 0 340 347 343 2 356 350 346 346 2 359 344 323 304 203 199 188 186 185 182 177 176 178 174 167 162 160 165 168 169 169 170 168 168 168 167 168 170 172 173 169
280 267 260 303 283 305 307 337 345 341 337 335 340 344 337 324 300 264 208 195 188 185 184 177 175 178 176 164 162 162 166 165 167 168 167 168 168 170 169 173 178 175 174 167
281 274 280 281 285 299 312 313 322 325 324 319 319 325 325 319 315 275 231 208 188 190 185 177 177 180 173 165 162 163 164 163 165 167 166 167 166 172 170 167 180 175 170 161
262 271 284 286 293 296 297 302 303 305 305 300 302 314 313 310 310 300 231 217 193 192 183 178 180 181 170 167 163 162 161 163 166 164 167 166 155 133 160 175 166 164 160 153
266 279 278 280 283 283 284 288 291 291 291 293 300 303 301 302 306 302 256 208 198 195 187 180 182 183 172 168 164 164 160 162 165 166 166 166 166 162 147 154 170 174 166 158
268 274 269 267 272 276 276 277 280 287 287 291 288 287 292 300 303 293 241 208 193 198 190 181 185 181 172 168 163 163 159 163 165 168 167 166 167 165 166 163 163 158 158 165
262 262 266 271 271 269 272 277 277 277 276 276 273 279 286 294 294 290 252 211 193 202 185 183 184 177 172 168 162 161 159 164 166 166 166 169 162 164 166 168 160 154 156 165
263 257 255 256 260 263 263 264 265 268 273 273 273 272 274 282 288 286 257 209 194 203 182 182 184 174 173 170 161 160 161 165 165 164 165 165 162 165 169 167 161 162 166 170
268 262 251 249 253 254 253 254 258 258 261 259 261 266 270 278 283 275 249 214 202 197 185 181 180 175 174 170 161 159 160 165 164 162 166 163 162 170 170 165 164 167 168 168
264 252 250 251 250 244 247 250 252 254 252 257 258 257 262 271 276 282 247 216 197 194 186 183 177 173 175 169 162 158 160 163 164 162 164 159 165 169 166 165 166 165 164 178
270 272 259 242 240 241 241 243 242 241 242 243 242 246 253 259 265 275 262 200 183 187 182 179 176 173 174 171 163 158 159 162 161 160 162 160 162 164 164 164 166 164 165 166
270 254 252 249 233 232 232 232 235 243 241 243 236 239 239 240 252 257 243 188 190 189 180 178 172 175 174 170 164 158 158 162 158 160 160 158 161 162 162 165 164 162 166 169
289 284 236 242 227 223 224 227 223 230 227 229 230 224 226 228 235 231 187 187 191 185 179 173 169 176 171 165 161 157 160 159 158 160 158 157 157 157 162 165 165 166 169 170
300 295 250 225 215 218 214 216 223 221 220 226 230 222 209 217 209 209 205 192 182 182 172 169 174 174 169 165 162 159 159 158 156 156 156 156 158 161 165 167 168 172 174 175
301 291 257 207 207 209 212 206 213 217 216 212 218 206 203 211 203 200 193 189 178 177 168 172 177 173 169 165 161 159 158 157 157 158 160 161 165 168 170 170 173 174 177 179
304 287 254 198 196 200 209 205 204 211 216 219 212 206 204 202 201 205 192 178 177 172 171 175 176 173 165 164 161 157 157 156 157 159 161 163 167 171 171 171 174 178 181 181
303 282 216 184 190 196 204 205 200 204 208 214 216 205 204 205 195 185 179 175 174 167 172 175 173 169 167 160 157 157 156 157 159 159 163 166 170 171 174 177 181 183 188 189
301 264 193 186 186 190 196 199 195 190 201 203 204 191 186 195 182 178 173 168 167 170 161 160 164 165 160 159 155 155 156 158 161 164 166 169 172 175 179 182 186 190 194 196
360 295 222 178 184 191 193 193 185 198 198 195 188 173 175 178 172 167 161 163 167 161 155 158 163 161 158 155 154 154 156 160 166 170 171 175 179 183 186 189 192 194 197 200